Probability
0 0 0 0 0 0 0 0 0 0 0 0 0 0 0 0 0 0 0 0 0 0 0 0 0 0 0 0 0 0 0 0 0 0 0 0 0 0 0 0 0 0 0
0 0 0 0 0 0 0 0 0 0 0 0 0 0 0 0 0 0 0 0 0 0 0 0 0 0 0 0 0 0 0 0 0 0 0 0 0 0 0 0 0 0 0
0 0 0 0 0 0 0 0 0 0 0 0 0 0 0 0 0 0 0 0 0 0 0 0 0 0 0 0 0 0 0 0 0 0 0 0 0 0 0 0 0 0 0
0 0 0 0 0 0 0 0 0 0 0 0 0 0 0 0 0 0 0 0 0 0 0 0 0 0 0 0 0 0 0 0 0 0 0 0 0 0 0 0 0 0 0
0 0 0 0 0 0 0 0 0 0 0 0 0 0 0 0 0 0 0 0 0 0 0 0 0 0 0 0 0 0 0 0 0 0 0 0 0 0 0 0 0 0 0
0 0 0 0 0 0 0 0 0 0 0 0 0 0 0 0 0 0 0 0 0 0 0 0 0 0 0 0 0 0 0 0 0 0 0 0 0 0 0 0 0 0 0
0 0 0 0 0 0 0 0 0 0 0 0 0 0 0 0 0 0 0 0 0 0 0 0 0 0 0 0 0 0 0 0 0 0 0 0 0 0 0 0 0 0 0
0 0 0 0 0 0 0 0 0 0 0 0 0 0 0 0 0 0 0 0 0 0 0 0 0 0 0 0 0 0 0 0 0 0 0 0 0 0 0 0 0 0 0
0 0 0 0 0 0 0 0 0 0 0 0 0 0 0 0 0 0 0 0 0 0 0 0 0 0 0 0 0 0 0 0 0 0 0 0 0 0 0 0 0 0 0
0 0 0 0 0 0 0 0 0 0 0 0 0 0 0 0 0 0 0 0 0 0 0 0 0 0 0 0 0 0 0 0 0 0 0 0 0 0 0 0 0 0 0
0 0 0 0 0 0 0 0 0 0 0 0 0 0 0 0 0 0 0 0 0 0 0 0 0 0 0 0 0 0 0 0 0 0 0 0 0 0 0 0 0 0 0
0 0 0 0 0 0 0 0 0 0 0 0 0 0 0 0 0 0 0 0 0 0 0 0 0 0 0 0 0 0 0 0 0 0 0 0 0 0 0 0 0 0 0
0 0 0 0 0 0 0 0 0 0 0 0 0 0 0 0 0 0 0 0 0 0 0 0 0 0 0 0 0 0 0 0 0 0 0 0 0 0 0 0 0 0 0
0 0 0 0 0 0 0 0 0 0 0 0 0 0 0 0 0 0 0 0 0 0 0 0 0 0 0 0 0 0 0 0 0 0 0 0 0 0 0 0 0 0 0
0 0 0 0 0 0 0 0 0 0 0 0 0 0 0 0 0 0 0 0 0 0 0 0 0 0 0 0 0 0 0 0 0 0 0 0 0 0 0 0 0 0 0
0 0 0 0 0 0 0 0 0 0 0 0 0 0 0 0 0 0 0 0 0 0 0 0 0 0 0 0 0 0 0 0 0 0 0 0 0 0 0 0 0 0 0
0 0 0 0 0 0 0 0 0 0 0 0 0 0 0 0 0 0 0 0 0 0 0 0 0 0 0 0 0 0 0 0 0 0 0 0 0 0 0 0 0 0 0
0 0 0 0 0 0 0 0 0 0 0 0 0 0 0 0 0 0 0 0 0 0 0 0 0 0 0 0 0 0 0 0 0 0 0 0 0 0 0 0 0 0 0
0 0 0 0 0 0 0 0 0 0 0 0 0 0 0 0 0 0 0 0 0 0 0 0 0 0 0 0 1 1 0 0 0 0 0 0 0 0 0 0 0 0 0
0 0 0 0 0 0 0 0 0 0 0 0 0 0 0 0 0 0 0 0 0 0 0 0 0 0 0 0 1 1 0 0 0 0 0 0 0 0 0 0 0 0 0
0 0 0 0 0 0 0 0 0 1 1 0 0 0 0 0 0 0 0 0 0 0 0 0 0 0 0 0 0 0 0 0 0 0 0 0 0 0 0 0 0 0 0
0 0 0 1 1 1 1 1 1 1 1 0 0 0 0 0 0 0 0 0 0 0 0 0 0 0 0 0 0 0 0 0 0 0 0 0 0 0 0 0 0 0 0
0 0 0 1 1 2 2 2 2 1 1 0 0 0 0 0 0 0 0 0 0 0 0 0 0 0 0 0 0 0 0 0 0 0 0 0 0 0 0 0 0 0 0
0 0 0 0 1 2 2 3 2 0 0 0 0 0 0 0 0 0 0 0 0 0 0 0 0 0 0 0 0 0 0 0 0 0 0 0 0 0 0 0 0 0 0
0 0 0 0 0 1 1 2 2 1 1 0 0 0 0 0 0 0 0 0 0 0 0 0 0 0 0 0 0 0 0 0 0 0 0 0 0 0 0 0 0 0 0
0 0 0 0 0 0 0 1 2 2 2 1 0 0 0 0 0 0 0 0 0 0 0 0 0 0 0 0 0 0 0 0 0 0 0 0 0 0 0 0 0 0 0
Wind_Speed
5 7 7 8 8 8 8 8 8 8 9 9 9 10 10 10 10 10 10 10 10 10 10 10 10 10 10 10 10 10 10 9 8 8 9 9 9 9 9 9 8 6 9
7 8 7 7 8 8 8 8 7 7 8 8 8 9 9 9 9 9 9 9 9 9 9 10 10 10 10 9 9 8 8 7 5 5 4 5 7 7 7 8 8 5 8
8 8 7 7 8 8 8 8 7 7 7 8 8 8 8 8 9 9 8 8 8 9 9 9 9 9 8 8 8 7 6 5 4 4 3 1 5 7 7 7 7 7 7
8 7 7 7 8 8 8 8 7 7 7 7 8 8 8 7 8 8 7 7 7 7 8 8 8 7 7 7 7 6 5 4 5 6 2 2 4 6 6 6 5 5 6
8 7 7 8 8 9 8 8 7 7 7 7 7 7 7 7 7 7 7 7 7 6 7 7 7 6 6 5 5 5 4 5 7 6 2 2 4 5 5 4 4 4 4
8 8 8 8 9 8 8 8 7 7 6 6 6 6 6 7 7 7 7 6 6 6 6 5 5 5 4 4 4 3 4 6 7 3 1 2 3 4 4 3 3 3 3
8 8 7 8 8 8 7 7 7 6 6 6 6 6 6 6 6 6 6 6 5 5 5 4 4 3 3 3 3 3 4 6 4 3 2 2 4 4 3 3 3 3 2
8 8 7 8 8 7 7 6 6 6 6 6 6 6 6 5 5 5 5 4 4 4 3 3 3 3 2 2 2 3 4 5 4 4 2 2 4 3 2 3 3 3 2
8 7 5 5 5 6 6 6 6 6 6 6 5 5 5 4 4 4 4 3 3 2 2 2 2 2 2 2 3 3 4 5 4 2 2 2 3 2 3 3 3 3 3
7 6 5 4 3 3 3 5 6 6 5 5 5 4 3 3 3 3 3 3 2 2 2 2 1 1 2 3 4 4 5 5 3 2 1 1 3 2 3 4 4 4 4
7 5 4 4 4 3 3 4 4 4 4 4 3 2 1 0 1 1 1 2 2 3 3 3 2 2 3 4 5 5 5 3 2 1 0 2 1 1 3 4 4 4 4
6 5 4 4 4 3 2 2 1 2 2 2 2 2 1 1 1 1 1 1 1 2 3 3 3 3 3 2 3 4 3 3 2 1 0 2 1 2 4 5 5 5 5
4 5 5 5 3 3 2 2 1 1 2 2 3 2 2 2 2 2 1 0 1 2 2 2 2 2 2 2 2 2 2 2 1 1 0 2 2 3 5 5 5 6 6
4 4 5 5 5 4 3 2 2 2 2 2 3 3 2 2 2 2 2 2 1 1 1 1 2 3 3 3 3 3 2 1 1 1 1 2 3 4 5 6 6 7 7
4 4 4 4 5 5 4 3 3 2 2 2 2 3 3 2 2 2 2 2 2 2 2 2 2 3 3 3 3 3 3 2 2 2 1 3 4 5 6 7 8 8 8
4 3 3 3 4 4 4 3 3 3 3 3 3 3 3 2 2 2 2 2 3 2 2 3 3 3 3 2 3 3 3 3 2 3 2 2 3 4 6 7 8 9 9
4 4 4 3 4 4 3 3 3 2 2 3 3 3 4 3 3 2 2 2 3 3 3 3 4 3 3 3 3 4 3 3 3 3 2 1 1 3 5 8 9 9 9
3 3 3 4 3 3 3 3 2 3 3 2 3 3 4 4 4 2 2 3 3 3 3 3 3 3 3 3 4 4 3 3 3 2 2 1 1 1 3 6 7 8 8
3 3 3 3 3 3 3 3 3 3 3 3 2 2 3 4 4 3 2 2 3 3 3 4 3 3 4 4 4 4 4 3 3 2 2 1 1 1 2 3 4 6 7
3 3 3 3 2 2 2 2 2 3 3 3 3 3 3 3 4 3 2 3 3 3 3 3 4 4 3 4 5 4 4 3 2 2 2 2 2 2 2 3 2 3 5
3 3 3 3 2 2 2 2 2 2 2 2 3 4 4 4 4 3 3 3 3 2 3 4 3 4 4 4 3 4 4 3 2 2 2 2 2 3 3 3 2 2 2
3 3 3 3 3 2 1 1 1 1 1 2 2 3 5 5 5 4 4 3 3 2 3 4 3 3 3 3 3 3 3 3 3 3 2 2 2 3 4 4 3 3 2
3 2 3 3 3 3 2 1 2 1 1 2 3 3 4 4 5 4 4 4 4 3 3 3 3 3 3 3 3 2 2 3 4 3 3 2 4 4 4 3 4 3 3
3 3 3 3 3 2 2 1 1 1 1 2 1 2 3 4 4 4 4 4 3 3 3 3 3 3 2 3 3 2 2 3 3 4 3 3 4 4 4 4 4 3 3
3 3 3 3 3 2 2 2 1 1 1 1 2 2 3 3 4 4 4 3 3 3 3 3 3 3 2 2 2 3 3 3 3 3 5 5 4 4 4 4 3 3 3
3 3 3 3 3 3 2 2 1 1 2 2 2 2 2 2 3 4 4 4 3 3 3 3 3 3 3 3 3 2 2 2 4 4 5 6 6 5 5 3 3 3 3
Wind_Direction
102 114 116 107 101 99 95 94 93 95 100 102 99 95 92 89 87 84 81 80 82 83 81 78 76 74 74 72 69 67 64 61 62 66 70 71 70 68 60 52 55 62 62
107 114 114 107 104 103 96 91 91 92 97 100 100 96 91 89 88 85 82 81 82 81 82 81 77 74 73 72 69 65 61 57 53 48 56 73 77 72 64 53 53 62 61
100 111 110 97 100 101 97 93 89 90 94 96 98 99 94 90 88 87 84 82 82 81 82 81 78 75 73 71 67 63 56 40 21 355 333 107 91 76 68 58 53 54 54
99 107 105 90 89 91 91 90 90 91 91 94 96 97 95 93 91 87 82 79 80 79 78 77 78 77 74 70 64 57 43 13 342 323 323 81 83 74 68 59 51 46 43
93 96 92 83 86 87 88 85 83 85 89 90 95 94 92 90 87 85 80 76 74 73 74 77 78 78 75 71 64 51 27 350 330 315 321 69 79 72 64 53 44 38 32
89 92 89 77 79 80 81 81 79 78 81 85 88 89 89 88 85 80 78 76 74 70 68 72 72 73 70 66 58 37 5 338 324 310 16 62 78 69 51 40 40 28 18
83 88 92 73 72 71 70 74 72 71 74 74 75 80 87 85 83 80 76 70 67 65 63 69 66 65 56 46 38 14 344 328 314 326 8 62 76 70 31 13 10 3 352
78 84 89 70 68 64 60 63 66 62 67 67 67 70 75 78 79 76 72 68 63 56 53 59 58 45 40 27 5 343 331 316 324 329 0 63 73 57 9 351 343 335 329
71 76 81 79 76 66 58 53 56 59 60 59 60 65 64 68 75 72 66 63 58 48 43 39 40 14 352 332 322 315 308 306 303 304 342 53 77 43 349 337 329 322 316
62 65 66 64 68 71 71 61 52 49 54 56 54 58 63 67 77 73 62 43 30 18 9 359 354 324 307 300 290 287 286 294 281 290 322 74 85 25 339 326 324 323 320
55 52 53 52 49 50 65 70 61 48 43 46 51 52 74 142 145 125 70 52 22 11 358 338 318 306 295 280 266 264 272 267 271 270 318 115 125 334 324 319 316 319 318
40 37 43 45 45 44 48 76 65 56 46 26 33 28 344 3 30 38 72 94 359 340 319 307 312 313 295 274 260 252 265 267 279 282 262 150 180 285 301 303 303 306 306
45 32 27 26 36 43 35 53 44 40 41 17 24 21 8 20 27 31 24 314 272 279 289 291 283 284 280 288 287 259 270 282 287 290 292 186 231 271 287 289 291 293 294
55 40 27 20 19 27 36 38 39 35 37 29 20 16 18 21 16 19 9 351 345 325 300 293 280 281 282 284 286 285 288 292 280 279 276 223 234 261 277 285 286 288 289
54 44 33 28 23 16 23 25 32 26 27 29 28 16 16 15 6 11 9 358 346 341 335 312 302 301 300 300 298 298 287 280 268 269 278 250 241 255 271 282 287 288 287
45 43 38 35 30 25 25 22 22 24 24 22 25 22 18 13 7 5 1 356 343 338 339 328 328 318 306 303 299 293 286 273 255 254 254 267 255 255 267 277 283 283 286
40 39 35 34 34 28 20 18 20 19 29 26 18 20 16 7 360 355 356 2 346 337 339 336 331 328 323 317 301 287 281 268 259 254 255 259 267 259 264 273 280 282 285
47 49 40 27 27 28 21 12 13 17 27 31 21 16 13 4 358 359 4 3 351 349 353 345 342 337 331 328 318 308 301 288 283 269 258 254 267 288 276 274 278 282 286
45 48 49 36 29 26 23 20 20 17 27 24 21 19 13 4 360 6 10 1 355 360 359 350 351 344 335 332 315 307 301 290 284 284 279 283 283 286 289 294 284 284 287
42 36 41 41 36 32 33 29 19 21 24 22 17 9 11 7 7 2 5 1 5 3 357 356 348 342 335 325 312 307 296 292 300 292 283 294 305 310 300 299 286 287 288
44 37 36 33 27 31 22 14 359 3 5 11 15 10 7 11 9 4 2 2 6 7 356 351 346 343 346 341 321 313 300 287 309 303 304 312 327 326 313 307 303 312 302
34 26 30 29 21 22 13 354 355 3 12 17 11 15 14 13 10 9 3 2 1 359 1 356 352 349 343 356 340 323 314 310 338 314 329 328 340 340 330 331 328 325 329
28 22 22 24 20 16 11 31 33 37 20 16 4 7 7 14 13 9 11 6 2 3 353 349 351 354 340 337 358 344 318 297 315 294 315 335 348 335 325 325 322 324 325
27 25 28 31 27 16 15 30 31 26 348 336 348 357 1 7 10 7 4 360 356 356 355 349 352 340 339 329 326 322 304 304 304 304 306 322 328 321 317 320 317 323 323
44 36 24 21 22 22 28 30 35 18 358 360 359 10 7 2 4 6 1 353 351 349 350 350 347 344 343 331 322 317 309 310 310 291 297 310 314 309 312 309 316 319 325
46 37 22 22 16 14 26 27 19 11 6 16 4 359 360 356 355 359 358 353 346 344 345 344 340 341 339 328 316 319 321 310 309 299 294 304 304 302 298 304 308 314 320